Location: Czekanka
(50.4925°N, 19.2643°E)
Time: 01:09:15
(UTC+00:00)

ADEOS II - Pass Details

Date: 18 September 2024
Orbit: 795 x 798 km, 98.7° (Epoch: 09 October)

Event Time Altitude Azimuth Distance (km) Brightness Sun altitude
Rises 23:45:37 0° 28° (NNE) 3,311 6.3 -36.1°
Reaches altitude 10° 23:48:55 10° 50° (NE) 2,374 5.2 -35.9°
Enters shadow 23:51:46 16° 83° (E) 1,987 4.4 -35.7°
